Location: Unspecified
(0.0000°N, 0.0000°E)
Time: 16:04:16
(UTC+00:00)

S-56A Canister/Altair - Visible Passes

Search period start: 12 April 2021 00:00
Search period end: 22 April 2021 00:00
Orbit: 632 x 2500 km, 38.9° (Epoch: 11 April)

Date Brightness Start Highest point End Pass type
(mag) Time Alt. Az. Time Alt. Az. Time Alt. Az.
12 Apr 10.3 19:21:48 10° SSW 19:31:39 24° SSE 19:33:34 23° SE visible
12 Apr 10.7 21:26:50 10° SW 21:31:02 24° SW 21:31:02 24° SW visible
13 Apr 10.4 18:48:26 10° SSW 18:58:05 22° SSE 19:03:11 16° ESE visible
13 Apr 10.0 20:53:09 10° SW 21:00:39 39° SSW 21:00:39 39° SSW visible
14 Apr 10.6 18:15:06 10° SSW 18:24:26 20° SSE 18:32:17 10° ESE visible
14 Apr 9.4 20:19:30 10° SW 20:30:25 54° S 20:30:25 54° S visible
14 Apr 11.4 22:27:50 10° WSW 22:27:55 10° WSW 22:27:55 10° WSW visible
15 Apr 9.3 19:45:52 10° SW 19:58:57 53° SE 20:00:19 51° ESE visible
15 Apr 10.8 21:53:39 10° WSW 21:57:49 22° WSW 21:57:49 22° WSW visible
16 Apr 9.7 19:12:17 10° SSW 19:25:33 47° SE 19:30:20 32° E visible
16 Apr 10.1 21:19:33 10° WSW 21:27:51 40° W 21:27:51 40° W visible
17 Apr 10.0 18:38:45 10° SSW 18:52:05 43° SE 19:00:30 16° E visible
17 Apr 9.4 20:45:31 10° WSW 20:58:02 63° NW 20:58:02 63° NW visible
18 Apr 10.2 18:05:17 10° SSW 18:18:30 38° SE 18:28:54 10° E visible
18 Apr 9.4 20:11:33 10° SW 20:25:08 74° NW 20:28:20 50° NNE visible
18 Apr 11.2 22:24:04 10° WNW 22:25:52 13° WNW 22:25:52 13° WNW visible
19 Apr 9.4 19:37:40 10° SW 19:51:55 84° NW 19:58:46 26° NE visible
19 Apr 10.8 21:48:54 10° W 21:56:19 21° NW 21:56:19 21° NW visible
20 Apr 9.5 19:03:52 10° SW 19:18:35 86° SE 19:29:05 10° NE visible
20 Apr 10.5 21:14:06 10° W 21:23:45 27° NW 21:26:49 23° NNW visible
21 Apr 9.7 18:30:10 10° SW 18:45:09 77° SE 18:56:17 10° NE visible
21 Apr 10.6 20:39:29 10° WSW 20:50:41 33° NW 20:57:22 16° N visible
